Fort Rucker / Ozark, AL

11:24 PM CDT on October 19, 2017 (GMT -0500)
Fort Rucker / Ozark

Weather History for KLOR - December, 2012

Change the Weather History Date:

Monday, December 31, 2012

  Actual Average (KOZR) Record (KOZR)
Temperature  
Mean Temperature 44 °F -  
Max Temperature 61 °F 58 °F 74 °F (2010)
Min Temperature 28 °F 37 °F 28 °F (1997)
Degree Days  
Heating Degree Days 20    
Moisture  
Dew Point 41 °F    
Average Humidity 73    
Maximum Humidity 92    
Minimum Humidity 50    
Precipitation  
Precipitation 0.00 in - - ()
Sea Level Pressure  
Sea Level Pressure 30.27 in    
Wind  
Wind Speed 1 mph (SSW)    
Max Wind Speed 5 mph    
Max Gust Speed -    
Visibility 10 miles    
Events      
Averages and records for this station are not official NWS values.
T = Trace of Precipitation, MM = Missing Value Source: NWS Daily Summary

Daily Weather History Graph

Daily Weather History Graph

Search for Another Location

Airport or City:

Trip Planner

Search our weather history database for the weather conditions in past years. The results will help you decide how hot, cold, wet, or windy it might be!

Date:

Astronomy

Dec. 31, 2012 Rise Set
Actual Time 6:41 AM CST 4:50 PM CST
Civil Twilight 6:15 AM CST 5:17 PM CST
Nautical Twilight 5:44 AM CST 5:47 PM CST
Astronomical Twilight 5:15 AM CST 6:17 PM CST
Moon 8:06 PM CST (12/31) 8:35 AM CST (12/31)
Length of Visible Light 11h 02m
Length of Day
10h 08m
Waning Gibbous, 90% of the Moon is Illuminated
Dec 31
Waning Gibbous
Jan 4
Last Quarter
Jan 11
New
Jan 18
First Quarter
Jan 26
Full

Hourly Weather History & Observations

Time (CST) Temp. Dew Point Humidity Pressure Visibility Wind Dir Wind Speed Gust Speed Precip Events Conditions
12:53 AM 28.9 °F 27.0 °F 92% 30.38 in 7.0 mi Calm Calm - N/A   Clear
1:53 AM 30.0 °F 27.0 °F 88% 30.37 in 9.0 mi Calm Calm - N/A   Clear
2:53 AM 30.9 °F 28.0 °F 89% 30.36 in 10.0 mi Calm Calm - N/A   Clear
3:53 AM 30.0 °F 27.0 °F 88% 30.35 in 8.0 mi Calm Calm - N/A   Clear
4:53 AM 30.0 °F 27.0 °F 88% 30.36 in 8.0 mi Calm Calm - N/A   Clear
5:53 AM 30.0 °F 27.0 °F 88% 30.37 in 10.0 mi Calm Calm - N/A   Clear
6:53 AM 30.0 °F 28.0 °F 92% 30.35 in 6.0 mi Calm Calm - N/A   Clear
7:53 AM 35.1 °F 32.0 °F 89% 30.36 in 9.0 mi Calm Calm - N/A   Clear
8:53 AM 45.0 °F 34.0 °F 65% 30.36 in 10.0 mi Calm Calm - N/A   Clear
9:53 AM 52.0 °F 34.0 °F 50% 30.36 in 10.0 mi Variable 4.6 mph - N/A   Clear
10:53 AM 55.9 °F 39.9 °F 55% 30.35 in 10.0 mi South 3.5 mph - N/A   Mostly Cloudy
11:46 AM 57.2 °F 42.8 °F 59% 30.31 in 10.0 mi Calm Calm - N/A   Overcast
11:53 AM 57.0 °F 42.1 °F 57% 30.31 in 10.0 mi SW 3.5 mph - N/A   Overcast
12:53 PM 60.1 °F 43.0 °F 53% 30.27 in 10.0 mi Calm Calm - N/A   Overcast
1:21 PM 60.8 °F 44.6 °F 55% 30.25 in 10.0 mi Calm Calm - N/A   Overcast
1:53 PM 61.0 °F 45.0 °F 56% 30.24 in 10.0 mi Calm Calm - N/A   Mostly Cloudy
2:18 PM 60.8 °F 46.4 °F 59% 30.23 in 10.0 mi NW 3.5 mph - N/A   Overcast
2:53 PM 60.1 °F 46.0 °F 60% 30.22 in 10.0 mi Calm Calm - N/A   Overcast
3:44 PM 60.8 °F 46.4 °F 59% 30.22 in 10.0 mi Calm Calm - N/A   Overcast
3:53 PM 61.0 °F 46.9 °F 60% 30.22 in 10.0 mi Calm Calm - N/A   Overcast
4:53 PM 57.9 °F 48.9 °F 72% 30.22 in 10.0 mi Calm Calm - N/A   Overcast
5:24 PM 57.2 °F 48.2 °F 72% 30.22 in 10.0 mi Calm Calm - N/A   Overcast
5:53 PM 57.0 °F 48.9 °F 74% 30.22 in 10.0 mi Calm Calm - N/A   Overcast
6:28 PM 55.4 °F 48.2 °F 77% 30.22 in 10.0 mi Calm Calm - N/A   Overcast
6:53 PM 57.0 °F 48.9 °F 74% 30.23 in 10.0 mi Calm Calm - N/A   Overcast
7:53 PM 54.0 °F 50.0 °F 86% 30.22 in 10.0 mi Calm Calm - N/A   Overcast
8:53 PM 55.0 °F 48.0 °F 77% 30.20 in 10.0 mi Calm Calm - N/A   Clear
9:53 PM 53.1 °F 46.9 °F 80% 30.16 in 10.0 mi SSE 3.5 mph - N/A   Mostly Cloudy
10:53 PM 54.0 °F 48.0 °F 80% 30.15 in 10.0 mi South 3.5 mph - N/A   Partly Cloudy
11:24 PM 53.6 °F 48.2 °F 82% 30.15 in 10.0 mi Calm Calm - N/A   Mostly Cloudy
11:53 PM 53.1 °F 48.9 °F 86% 30.14 in 9.0 mi Calm Calm - N/A   Overcast